Location: Eurasberg
(48.3353°N, 11.0839°E)
Time: 14:04:15
(UTC+00:00)

Timation 1 Rocket - Pass Details

Date: 24 April 2026
Orbit: 895 x 908 km, 70.0° (Epoch: 14 May)

Event Time Altitude Azimuth Distance (km) Brightness Sun altitude
Exits shadow 01:28:37 10° 282° (WNW) 2,622 6.5 -21.9°
Reaches altitude 10° 01:28:43 10° 283° (WNW) 2,596 6.5 -21.9°
Maximum altitude 01:32:48 18° 326° (NW) 2,059 6.4 -21.5°
Drops below altitude 10° 01:36:53 10° 9° (N) 2,604 7.6 -21.1°
Sets 01:40:16 0° 28° (NNE) 3,548 8.9 -20.8°
